QPF
0.00 0.00 0.00 0.00 0.00 0.00 0.01 0.01 0.02 0.04 0.02 0.02 0.03 0.07 0.12 0.18 0.31 0.39 0.52 0.44 0.35 0.36 0.34 0.26 0.22 0.17 0.13 0.12 0.10 0.07 0.04 0.03 0.02 0.02 0.02 0.02 0.03 0.05 0.03 0.02 0.02 0.02 0.01 0.01
0.00 0.00 0.00 0.00 0.00 0.01 0.01 0.01 0.02 0.02 0.02 0.03 0.07 0.10 0.15 0.18 0.23 0.23 0.40 0.42 0.31 0.27 0.22 0.18 0.15 0.11 0.07 0.05 0.04 0.03 0.02 0.01 0.01 0.01 0.01 0.01 0.01 0.02 0.02 0.01 0.02 0.01 0.01 0.00
0.00 0.00 0.00 0.00 0.00 0.00 0.00 0.01 0.01 0.01 0.02 0.04 0.09 0.15 0.14 0.10 0.12 0.16 0.19 0.26 0.26 0.20 0.15 0.10 0.05 0.05 0.05 0.03 0.02 0.01 0.00 0.00 0.00 0.00 0.00 0.00 0.00 0.00 0.00 0.01 0.01 0.01 0.01 0.01
0.00 0.00 0.00 0.00 0.00 0.01 0.01 0.01 0.01 0.01 0.04 0.08 0.06 0.07 0.08 0.06 0.08 0.12 0.11 0.14 0.18 0.16 0.11 0.07 0.05 0.04 0.03 0.01 0.01 0.00 0.00 0.00 0.00 0.00 0.00 0.00 0.00 0.00 0.00 0.01 0.01 0.01 0.01 0.01
0.00 0.00 0.00 0.00 0.00 0.01 0.01 0.01 0.01 0.02 0.04 0.06 0.04 0.04 0.06 0.04 0.04 0.09 0.10 0.12 0.13 0.11 0.09 0.08 0.07 0.03 0.01 0.01 0.00 0.00 0.01 0.01 0.01 0.00 0.00 0.00 0.00 0.00 0.00 0.00 0.00 0.00 0.00 0.00
0.00 0.01 0.01 0.01 0.01 0.01 0.01 0.01 0.02 0.04 0.06 0.07 0.04 0.05 0.06 0.03 0.01 0.03 0.04 0.13 0.14 0.09 0.06 0.05 0.03 0.01 0.01 0.03 0.02 0.01 0.01 0.01 0.01 0.01 0.01 0.00 0.00 0.00 0.00 0.00 0.00 0.00 0.00 0.00
0.01 0.02 0.02 0.01 0.01 0.01 0.02 0.03 0.05 0.07 0.07 0.07 0.03 0.03 0.02 0.01 0.01 0.01 0.03 0.11 0.15 0.11 0.12 0.06 0.02 0.00 0.00 0.01 0.01 0.01 0.01 0.00 0.01 0.01 0.01 0.01 0.00 0.00 0.00 0.00 0.00 0.00 0.00 0.00
0.02 0.03 0.02 0.01 0.01 0.01 0.01 0.02 0.04 0.06 0.09 0.07 0.05 0.06 0.03 0.01 0.00 0.01 0.01 0.02 0.08 0.08 0.08 0.04 0.02 0.01 0.01 0.00 0.00 0.00 0.01 0.00 0.00 0.01 0.00 0.00 0.00 0.00 0.00 0.00 0.00 0.00 0.00 0.00
0.01 0.02 0.02 0.01 0.01 0.01 0.01 0.01 0.03 0.05 0.11 0.13 0.14 0.07 0.02 0.01 0.00 0.00 0.00 0.01 0.03 0.03 0.02 0.02 0.02 0.02 0.01 0.00 0.00 0.00 0.00 0.00 0.00 0.00 0.00 0.00 0.00 0.00 0.00 0.00 0.00 0.00 0.00 0.00
0.01 0.01 0.01 0.01 0.02 0.01 0.01 0.01 0.02 0.03 0.07 0.11 0.17 0.14 0.04 0.01 0.00 0.00 0.00 0.00 0.01 0.01 0.01 0.01 0.01 0.01 0.01 0.01 0.01 0.00 0.00 0.00 0.00 0.00 0.00 0.00 0.00 0.00 0.00 0.00 0.00 0.00 0.00 0.00
0.02 0.01 0.01 0.01 0.02 0.03 0.02 0.02 0.02 0.02 0.03 0.05 0.10 0.08 0.04 0.01 0.00 0.00 0.00 0.00 0.00 0.00 0.00 0.01 0.00 0.00 0.01 0.02 0.01 0.01 0.00 0.00 0.00 0.00 0.00 0.00 0.00 0.00 0.00 0.00 0.00 0.00 0.00 0.00
0.02 0.01 0.01 0.02 0.03 0.03 0.02 0.02 0.02 0.02 0.02 0.04 0.05 0.03 0.02 0.01 0.00 0.00 0.00 0.00 0.00 0.00 0.00 0.00 0.00 0.00 0.01 0.02 0.01 0.01 0.00 0.00 0.00 0.00 0.00 0.00 0.00 0.00 0.00 0.00 0.00 0.00 0.00 0.00
0.01 0.01 0.01 0.01 0.02 0.02 0.01 0.01 0.02 0.02 0.02 0.03 0.04 0.03 0.02 0.01 0.01 0.00 0.00 0.00 0.00 0.00 0.00 0.00 0.00 0.00 0.00 0.00 0.00 0.00 0.00 0.00 0.00 0.00 0.00 0.00 0.00 0.00 0.00 0.00 0.00 0.00 0.00 0.00
0.00 0.00 0.00 0.01 0.03 0.02 0.01 0.01 0.01 0.01 0.01 0.02 0.03 0.03 0.02 0.01 0.00 0.01 0.00 0.00 0.00 0.00 0.00 0.00 0.00 0.00 0.00 0.00 0.00 0.00 0.00 0.00 0.00 0.00 0.00 0.00 0.00 0.00 0.00 0.00 0.00 0.00 0.00 0.00
0.01 0.00 0.00 0.00 0.01 0.02 0.01 0.01 0.02 0.02 0.01 0.02 0.02 0.02 0.02 0.01 0.01 0.00 0.00 0.00 0.00 0.00 0.00 0.00 0.00 0.00 0.00 0.00 0.00 0.00 0.00 0.00 0.00 0.00 0.00 0.00 0.00 0.00 0.00 0.00 0.00 0.00 0.00 0.00
0.01 0.01 0.00 0.00 0.01 0.01 0.02 0.01 0.01 0.01 0.01 0.01 0.01 0.01 0.01 0.01 0.01 0.01 0.01 0.00 0.00 0.00 0.00 0.00 0.00 0.00 0.00 0.00 0.00 0.00 0.00 0.00 0.00 0.00 0.00 0.00 0.00 0.00 0.00 0.00 0.00 0.00 0.00 0.00
0.01 0.01 0.01 0.01 0.01 0.01 0.01 0.02 0.02 0.02 0.02 0.02 0.01 0.02 0.01 0.01 0.01 0.01 0.01 0.00 0.00 0.00 0.00 0.00 0.00 0.00 0.00 0.00 0.00 0.00 0.00 0.00 0.00 0.00 0.00 0.00 0.00 0.00 0.00 0.00 0.00 0.00 0.00 0.00
0.02 0.02 0.01 0.01 0.01 0.01 0.01 0.02 0.03 0.03 0.02 0.03 0.03 0.02 0.02 0.02 0.02 0.02 0.02 0.01 0.00 0.00 0.00 0.00 0.00 0.00 0.00 0.00 0.00 0.00 0.00 0.00 0.00 0.00 0.00 0.00 0.00 0.00 0.00 0.00 0.00 0.00 0.00 0.00
0.02 0.03 0.01 0.01 0.01 0.01 0.02 0.03 0.04 0.04 0.03 0.04 0.04 0.03 0.03 0.03 0.03 0.03 0.02 0.02 0.01 0.01 0.01 0.01 0.00 0.00 0.00 0.00 0.00 0.00 0.00 0.00 0.00 0.00 0.00 0.00 0.00 0.00 0.00 0.00 0.00 0.00 0.00 0.00
0.04 0.03 0.03 0.02 0.03 0.03 0.03 0.05 0.05 0.04 0.04 0.06 0.06 0.05 0.05 0.06 0.09 0.07 0.05 0.04 0.03 0.02 0.01 0.01 0.01 0.00 0.00 0.00 0.00 0.00 0.00 0.00 0.00 0.00 0.00 0.00 0.00 0.00 0.00 0.00 0.00 0.00 0.00 0.00
0.08 0.07 0.05 0.05 0.06 0.06 0.05 0.05 0.04 0.07 0.10 0.15 0.16 0.11 0.08 0.07 0.08 0.10 0.10 0.07 0.05 0.03 0.02 0.01 0.01 0.00 0.00 0.00 0.00 0.00 0.00 0.00 0.00 0.00 0.00 0.00 0.00 0.00 0.01 0.01 0.01 0.01 0.01 0.01
0.08 0.11 0.13 0.13 0.14 0.12 0.10 0.10 0.08 0.10 0.13 0.19 0.17 0.10 0.08 0.07 0.08 0.09 0.10 0.07 0.05 0.03 0.03 0.02 0.01 0.00 0.01 0.00 0.00 0.01 0.00 0.00 0.01 0.01 0.01 0.01 0.02 0.01 0.01 0.01 0.01 0.01 0.01 0.01
0.08 0.09 0.15 0.20 0.21 0.16 0.12 0.13 0.12 0.09 0.10 0.12 0.13 0.12 0.09 0.09 0.09 0.07 0.07 0.07 0.04 0.03 0.02 0.02 0.02 0.02 0.01 0.01 0.01 0.01 0.01 0.01 0.01 0.01 0.01 0.01 0.01 0.01 0.01 0.01 0.01 0.01 0.01 0.01
0.07 0.08 0.11 0.14 0.18 0.19 0.15 0.14 0.13 0.10 0.08 0.11 0.12 0.09 0.06 0.04 0.04 0.03 0.05 0.04 0.03 0.03 0.02 0.02 0.02 0.03 0.03 0.03 0.03 0.02 0.02 0.01 0.01 0.01 0.01 0.01 0.01 0.00 0.01 0.01 0.01 0.01 0.01 0.01
0.03 0.04 0.07 0.13 0.17 0.17 0.16 0.13 0.09 0.08 0.05 0.04 0.05 0.04 0.03 0.02 0.02 0.02 0.02 0.02 0.03 0.02 0.03 0.04 0.04 0.03 0.03 0.03 0.02 0.02 0.02 0.01 0.01 0.01 0.02 0.02 0.01 0.01 0.01 0.01 0.01 0.01 0.01 0.02
0.04 0.07 0.08 0.10 0.10 0.11 0.11 0.07 0.05 0.04 0.03 0.03 0.03 0.02 0.02 0.02 0.02 0.02 0.02 0.02 0.02 0.02 0.03 0.04 0.05 0.06 0.07 0.08 0.06 0.06 0.06 0.07 0.06 0.05 0.05 0.05 0.04 0.03 0.02 0.01 0.01 0.01 0.02 0.02
MSLP
1012.18 1012.78 1013.17 1013.38 1013.45 1013.48 1013.54 1013.69 1013.98 1014.40 1014.91 1015.45 1015.95 1016.35 1016.60 1016.67 1016.58 1016.36 1016.06 1015.72 1015.38 1015.07 1014.81 1014.60 1014.43 1014.31 1014.23 1014.19 1014.20 1014.27 1014.41 1014.60 1014.83 1015.09 1015.34 1015.56 1015.72 1015.81 1015.84 1015.82 1015.78 1015.75 1015.77 1015.85
1012.43 1012.95 1013.27 1013.42 1013.49 1013.56 1013.71 1013.99 1014.42 1014.96 1015.55 1016.11 1016.57 1016.87 1016.99 1016.93 1016.73 1016.43 1016.09 1015.76 1015.47 1015.23 1015.03 1014.85 1014.69 1014.53 1014.39 1014.27 1014.22 1014.25 1014.38 1014.62 1014.93 1015.28 1015.63 1015.92 1016.12 1016.21 1016.19 1016.10 1015.97 1015.86 1015.80 1015.82
1012.30 1012.74 1012.99 1013.13 1013.23 1013.40 1013.71 1014.18 1014.79 1015.49 1016.18 1016.77 1017.18 1017.37 1017.33 1017.10 1016.74 1016.32 1015.93 1015.59 1015.34 1015.17 1015.05 1014.93 1014.81 1014.65 1014.49 1014.34 1014.26 1014.27 1014.42 1014.70 1015.08 1015.52 1015.95 1016.31 1016.55 1016.63 1016.58 1016.42 1016.22 1016.02 1015.89 1015.87
1011.88 1012.23 1012.43 1012.57 1012.76 1013.09 1013.60 1014.31 1015.15 1016.03 1016.84 1017.46 1017.81 1017.87 1017.64 1017.20 1016.65 1016.08 1015.59 1015.22 1014.99 1014.89 1014.85 1014.83 1014.78 1014.68 1014.54 1014.41 1014.32 1014.35 1014.51 1014.83 1015.27 1015.77 1016.26 1016.67 1016.93 1017.02 1016.95 1016.74 1016.48 1016.23 1016.04 1015.97
1011.38 1011.61 1011.76 1011.93 1012.23 1012.74 1013.49 1014.46 1015.55 1016.63 1017.55 1018.20 1018.48 1018.38 1017.95 1017.28 1016.50 1015.75 1015.13 1014.70 1014.48 1014.43 1014.49 1014.58 1014.64 1014.63 1014.56 1014.47 1014.41 1014.45 1014.64 1014.97 1015.44 1015.97 1016.50 1016.94 1017.22 1017.32 1017.23 1017.01 1016.72 1016.43 1016.21 1016.11
1010.98 1011.09 1011.19 1011.39 1011.80 1012.49 1013.47 1014.69 1016.01 1017.26 1018.28 1018.93 1019.13 1018.87 1018.22 1017.31 1016.30 1015.35 1014.59 1014.09 1013.87 1013.87 1014.03 1014.24 1014.42 1014.52 1014.54 1014.52 1014.50 1014.56 1014.75 1015.08 1015.54 1016.07 1016.60 1017.05 1017.35 1017.46 1017.39 1017.17 1016.89 1016.60 1016.37 1016.25
1010.85 1010.84 1010.87 1011.08 1011.58 1012.42 1013.58 1014.99 1016.48 1017.85 1018.92 1019.55 1019.65 1019.23 1018.38 1017.24 1016.02 1014.89 1014.00 1013.44 1013.21 1013.27 1013.52 1013.85 1014.16 1014.39 1014.51 1014.55 1014.58 1014.64 1014.81 1015.11 1015.53 1016.03 1016.54 1016.97 1017.28 1017.41 1017.37 1017.20 1016.95 1016.68 1016.47 1016.36
1011.05 1010.91 1010.87 1011.07 1011.60 1012.52 1013.79 1015.30 1016.87 1018.28 1019.35 1019.92 1019.91 1019.34 1018.31 1017.00 1015.61 1014.35 1013.38 1012.77 1012.56 1012.67 1013.02 1013.47 1013.90 1014.24 1014.45 1014.56 1014.61 1014.66 1014.80 1015.04 1015.40 1015.84 1016.30 1016.71 1017.02 1017.18 1017.19 1017.08 1016.88 1016.68 1016.51 1016.41
1011.48 1011.24 1011.14 1011.29 1011.81 1012.73 1014.00 1015.51 1017.05 1018.42 1019.41 1019.88 1019.76 1019.07 1017.92 1016.50 1015.03 1013.71 1012.70 1012.11 1011.93 1012.11 1012.54 1013.10 1013.63 1014.07 1014.36 1014.51 1014.57 1014.61 1014.69 1014.87 1015.15 1015.51 1015.91 1016.30 1016.61 1016.80 1016.87 1016.82 1016.71 1016.57 1016.45 1016.39
1012.00 1011.69 1011.53 1011.63 1012.08 1012.93 1014.10 1015.50 1016.91 1018.15 1019.00 1019.35 1019.12 1018.35 1017.15 1015.70 1014.23 1012.94 1011.98 1011.44 1011.33 1011.59 1012.11 1012.75 1013.37 1013.87 1014.22 1014.41 1014.48 1014.49 1014.52 1014.62 1014.82 1015.11 1015.45 1015.80 1016.11 1016.34 1016.46 1016.49 1016.45 1016.38 1016.32 1016.29
1012.38 1012.06 1011.87 1011.91 1012.28 1012.99 1013.99 1015.19 1016.39 1017.41 1018.09 1018.29 1017.98 1017.17 1015.99 1014.61 1013.24 1012.05 1011.21 1010.77 1010.76 1011.11 1011.70 1012.41 1013.08 1013.64 1014.03 1014.24 1014.31 1014.31 1014.30 1014.35 1014.48 1014.71 1015.00 1015.31 1015.61 1015.86 1016.03 1016.12 1016.15 1016.14 1016.12 1016.12
1012.49 1012.22 1012.03 1012.04 1012.31 1012.86 1013.65 1014.59 1015.53 1016.31 1016.78 1016.84 1016.45 1015.66 1014.57 1013.32 1012.12 1011.11 1010.43 1010.14 1010.24 1010.67 1011.32 1012.06 1012.77 1013.36 1013.77 1014.00 1014.09 1014.09 1014.07 1014.09 1014.18 1014.36 1014.60 1014.89 1015.18 1015.43 1015.63 1015.76 1015.83 1015.87 1015.89 1015.90
1012.28 1012.11 1011.98 1011.98 1012.16 1012.55 1013.13 1013.80 1014.46 1014.98 1015.25 1015.18 1014.76 1014.01 1013.05 1011.99 1010.99 1010.20 1009.70 1009.56 1009.77 1010.26 1010.94 1011.69 1012.41 1013.00 1013.43 1013.69 1013.81 1013.84 1013.83 1013.85 1013.94 1014.09 1014.31 1014.57 1014.84 1015.09 1015.29 1015.44 1015.54 1015.60 1015.63 1015.64
1011.83 1011.80 1011.76 1011.79 1011.92 1012.18 1012.55 1012.98 1013.38 1013.65 1013.73 1013.56 1013.12 1012.45 1011.63 1010.77 1010.00 1009.42 1009.10 1009.09 1009.37 1009.89 1010.56 1011.29 1011.98 1012.56 1013.00 1013.29 1013.45 1013.53 1013.57 1013.64 1013.74 1013.90 1014.11 1014.35 1014.60 1014.83 1015.02 1015.16 1015.26 1015.32 1015.35 1015.36
1011.31 1011.43 1011.51 1011.59 1011.70 1011.87 1012.07 1012.29 1012.47 1012.54 1012.47 1012.21 1011.77 1011.18 1010.51 1009.84 1009.26 1008.85 1008.67 1008.74 1009.05 1009.54 1010.16 1010.83 1011.46 1012.01 1012.45 1012.77 1012.99 1013.14 1013.27 1013.39 1013.55 1013.74 1013.96 1014.19 1014.41 1014.62 1014.79 1014.91 1014.99 1015.04 1015.06 1015.06
1010.91 1011.17 1011.36 1011.51 1011.62 1011.73 1011.82 1011.88 1011.88 1011.80 1011.60 1011.29 1010.86 1010.34 1009.79 1009.27 1008.83 1008.54 1008.44 1008.53 1008.80 1009.22 1009.73 1010.29 1010.84 1011.34 1011.77 1012.12 1012.41 1012.65 1012.87 1013.08 1013.31 1013.54 1013.78 1014.02 1014.23 1014.41 1014.55 1014.65 1014.71 1014.74 1014.75 1014.74
1010.76 1011.13 1011.41 1011.61 1011.74 1011.81 1011.83 1011.78 1011.66 1011.47 1011.20 1010.85 1010.43 1009.97 1009.51 1009.08 1008.72 1008.48 1008.38 1008.42 1008.60 1008.89 1009.26 1009.69 1010.13 1010.55 1010.96 1011.34 1011.69 1012.02 1012.35 1012.66 1012.97 1013.27 1013.54 1013.79 1013.99 1014.15 1014.27 1014.34 1014.39 1014.40 1014.40 1014.37
1010.92 1011.33 1011.66 1011.89 1012.03 1012.08 1012.05 1011.94 1011.76 1011.51 1011.20 1010.83 1010.43 1010.01 1009.59 1009.20 1008.87 1008.62 1008.46 1008.39 1008.43 1008.56 1008.76 1009.03 1009.34 1009.69 1010.06 1010.46 1010.87 1011.29 1011.71 1012.12 1012.52 1012.88 1013.19 1013.46 1013.67 1013.82 1013.92 1013.98 1014.01 1014.02 1014.00 1013.97
1011.28 1011.68 1012.01 1012.23 1012.37 1012.40 1012.35 1012.22 1012.01 1011.74 1011.43 1011.08 1010.70 1010.30 1009.90 1009.52 1009.17 1008.86 1008.60 1008.40 1008.27 1008.22 1008.25 1008.35 1008.54 1008.80 1009.14 1009.54 1010.00 1010.49 1011.00 1011.50 1011.97 1012.39 1012.75 1013.04 1013.26 1013.41 1013.51 1013.56 1013.59 1013.58 1013.56 1013.51
1011.67 1012.01 1012.28 1012.48 1012.58 1012.60 1012.55 1012.42 1012.23 1011.98 1011.70 1011.38 1011.04 1010.67 1010.29 1009.90 1009.51 1009.12 1008.75 1008.42 1008.14 1007.92 1007.78 1007.74 1007.82 1008.01 1008.31 1008.71 1009.20 1009.74 1010.31 1010.87 1011.40 1011.87 1012.26 1012.57 1012.80 1012.96 1013.05 1013.10 1013.12 1013.11 1013.08 1013.02
1011.91 1012.15 1012.33 1012.46 1012.52 1012.53 1012.49 1012.39 1012.25 1012.06 1011.84 1011.59 1011.30 1010.98 1010.62 1010.22 1009.80 1009.35 1008.90 1008.46 1008.05 1007.70 1007.44 1007.29 1007.28 1007.41 1007.67 1008.07 1008.57 1009.13 1009.74 1010.34 1010.89 1011.39 1011.79 1012.11 1012.34 1012.49 1012.58 1012.62 1012.63 1012.61 1012.56 1012.48
1011.84 1011.95 1012.03 1012.08 1012.11 1012.11 1012.10 1012.05 1011.98 1011.89 1011.76 1011.60 1011.39 1011.13 1010.82 1010.44 1010.02 1009.55 1009.05 1008.54 1008.06 1007.64 1007.31 1007.10 1007.03 1007.11 1007.35 1007.73 1008.22 1008.78 1009.38 1009.98 1010.53 1011.02 1011.41 1011.71 1011.92 1012.05 1012.12 1012.14 1012.12 1012.08 1012.01 1011.91
1011.41 1011.40 1011.38 1011.36 1011.36 1011.37 1011.39 1011.43 1011.46 1011.47 1011.46 1011.41 1011.30 1011.13 1010.88 1010.56 1010.17 1009.72 1009.23 1008.72 1008.23 1007.79 1007.44 1007.21 1007.13 1007.19 1007.40 1007.75 1008.21 1008.74 1009.31 1009.86 1010.37 1010.81 1011.15 1011.41 1011.57 1011.66 1011.68 1011.66 1011.60 1011.52 1011.42 1011.29
1010.68 1010.57 1010.47 1010.41 1010.39 1010.43 1010.51 1010.63 1010.76 1010.90 1011.01 1011.08 1011.09 1011.02 1010.87 1010.63 1010.31 1009.92 1009.49 1009.03 1008.59 1008.19 1007.87 1007.67 1007.59 1007.65 1007.84 1008.15 1008.56 1009.02 1009.51 1009.99 1010.41 1010.77 1011.03 1011.21 1011.30 1011.31 1011.27 1011.18 1011.06 1010.93 1010.78 1010.62
1009.81 1009.64 1009.49 1009.41 1009.40 1009.48 1009.63 1009.84 1010.08 1010.32 1010.55 1010.74 1010.86 1010.89 1010.84 1010.70 1010.48 1010.19 1009.85 1009.49 1009.14 1008.83 1008.58 1008.42 1008.37 1008.43 1008.60 1008.86 1009.19 1009.57 1009.95 1010.31 1010.62 1010.86 1011.01 1011.08 1011.07 1010.99 1010.86 1010.69 1010.50 1010.30 1010.10 1009.90
1009.01 1008.81 1008.66 1008.59 1008.61 1008.73 1008.95 1009.24 1009.57 1009.90 1010.23 1010.50 1010.71 1010.84 1010.88 1010.84 1010.72 1010.54 1010.32 1010.08 1009.84 1009.63 1009.47 1009.38 1009.36 1009.42 1009.56 1009.76 1010.00 1010.26 1010.52 1010.74 1010.91 1011.01 1011.04 1010.99 1010.86 1010.68 1010.44 1010.18 1009.90 1009.63 1009.37 1009.14
Thickness
5799 5780 5767 5776 5780 5777 5774 5764 5757 5760 5769 5756 5742 5735 5734 5734 5732 5728 5726 5728 5730 5734 5739 5744 5748 5750 5751 5751 5751 5751 5748 5746 5745 5742 5739 5735 5733 5732 5731 5730 5728 5726 5724 5722
5777 5770 5791 5799 5797 5790 5778 5764 5758 5759 5765 5752 5737 5734 5736 5735 5732 5731 5728 5728 5729 5732 5736 5739 5743 5747 5748 5747 5747 5747 5745 5743 5742 5740 5737 5735 5732 5730 5728 5726 5724 5722 5721 5719
5770 5786 5806 5800 5791 5781 5774 5766 5760 5753 5754 5750 5738 5728 5733 5738 5739 5737 5735 5733 5731 5733 5733 5737 5741 5743 5745 5744 5745 5746 5743 5741 5740 5738 5735 5732 5728 5725 5722 5720 5719 5719 5718 5716
5782 5798 5802 5795 5787 5782 5763 5777 5772 5759 5739 5724 5731 5710 5726 5734 5735 5738 5737 5736 5735 5737 5738 5739 5741 5741 5743 5744 5745 5743 5740 5738 5736 5734 5731 5726 5721 5717 5716 5716 5715 5715 5714 5712
5780 5794 5794 5787 5789 5786 5771 5777 5767 5754 5736 5722 5723 5712 5718 5733 5728 5734 5739 5741 5741 5742 5741 5741 5743 5744 5745 5745 5743 5741 5738 5736 5734 5732 5729 5724 5719 5717 5715 5714 5712 5711 5710 5708
5791 5803 5801 5796 5798 5794 5781 5765 5751 5737 5723 5707 5716 5711 5713 5726 5734 5738 5742 5745 5744 5744 5744 5744 5745 5744 5743 5743 5741 5739 5736 5733 5731 5729 5726 5723 5718 5715 5713 5710 5707 5705 5704 5703
5775 5788 5798 5800 5785 5782 5773 5742 5716 5710 5700 5701 5720 5717 5720 5744 5752 5751 5748 5747 5747 5746 5745 5743 5742 5741 5741 5740 5739 5737 5733 5730 5728 5726 5724 5722 5718 5715 5711 5707 5704 5702 5699 5697
5753 5757 5785 5792 5783 5769 5763 5747 5715 5701 5696 5702 5717 5715 5734 5759 5763 5763 5758 5754 5751 5747 5747 5747 5746 5744 5743 5741 5739 5736 5732 5729 5727 5725 5723 5721 5718 5714 5710 5707 5704 5700 5697 5694
5751 5756 5789 5794 5793 5780 5760 5746 5743 5716 5705 5697 5708 5725 5745 5762 5760 5759 5757 5754 5752 5751 5751 5751 5749 5747 5745 5743 5740 5737 5733 5729 5727 5725 5722 5719 5716 5713 5709 5706 5703 5699 5695 5692
5765 5753 5774 5786 5788 5782 5773 5758 5733 5715 5696 5690 5703 5711 5722 5742 5749 5755 5755 5754 5754 5755 5754 5754 5752 5750 5748 5745 5742 5739 5735 5731 5728 5725 5722 5719 5715 5712 5708 5704 5700 5696 5693 5689
5769 5748 5755 5766 5764 5762 5762 5755 5738 5719 5713 5695 5687 5709 5752 5752 5756 5757 5760 5761 5759 5758 5757 5756 5754 5752 5749 5745 5741 5737 5733 5730 5726 5724 5720 5717 5714 5711 5707 5702 5698 5694 5690 5686
5767 5746 5738 5752 5770 5777 5768 5758 5741 5720 5715 5710 5701 5718 5773 5770 5768 5766 5765 5766 5765 5764 5761 5758 5754 5750 5746 5742 5739 5736 5733 5729 5726 5723 5719 5715 5712 5708 5704 5700 5696 5692 5687 5683
5767 5743 5724 5728 5741 5759 5759 5762 5753 5735 5720 5710 5704 5726 5774 5772 5770 5771 5769 5769 5767 5763 5759 5755 5751 5747 5744 5741 5738 5735 5732 5729 5726 5722 5717 5713 5709 5705 5701 5698 5694 5689 5684 5679
5773 5744 5731 5724 5731 5747 5750 5758 5758 5739 5718 5716 5723 5738 5760 5765 5767 5769 5770 5769 5766 5762 5758 5753 5748 5745 5742 5740 5737 5735 5731 5729 5725 5720 5715 5711 5707 5704 5700 5696 5691 5686 5681 5676
5765 5744 5748 5750 5757 5757 5756 5759 5760 5749 5741 5730 5738 5743 5757 5766 5770 5772 5771 5767 5763 5758 5755 5751 5747 5743 5741 5738 5736 5734 5731 5728 5724 5718 5713 5710 5706 5702 5698 5693 5688 5683 5678 5673
5755 5743 5743 5744 5757 5757 5755 5761 5761 5758 5755 5749 5749 5749 5768 5772 5772 5768 5767 5765 5760 5757 5755 5752 5748 5744 5741 5739 5736 5733 5729 5726 5722 5717 5712 5709 5704 5699 5694 5689 5684 5679 5673 5669
5742 5736 5728 5725 5743 5745 5734 5749 5753 5750 5754 5751 5740 5748 5762 5761 5762 5761 5762 5763 5761 5759 5757 5753 5750 5747 5744 5741 5738 5732 5729 5725 5719 5715 5711 5706 5701 5695 5690 5686 5680 5674 5669 5664
5739 5728 5718 5717 5725 5713 5736 5758 5760 5753 5749 5752 5752 5756 5759 5761 5764 5765 5764 5762 5760 5759 5757 5755 5751 5747 5744 5740 5736 5732 5727 5722 5716 5711 5707 5703 5697 5692 5687 5681 5675 5670 5665 5659
5745 5730 5715 5707 5706 5717 5738 5751 5750 5743 5734 5744 5747 5753 5756 5760 5757 5754 5760 5762 5762 5761 5759 5756 5753 5748 5742 5738 5734 5728 5722 5717 5712 5708 5703 5699 5694 5688 5682 5676 5671 5666 5660 5655
5735 5729 5715 5705 5702 5702 5724 5747 5755 5744 5723 5739 5742 5744 5747 5748 5730 5737 5753 5757 5758 5757 5755 5752 5749 5744 5738 5735 5731 5723 5716 5711 5707 5705 5701 5696 5690 5684 5678 5672 5667 5662 5657 5651
5713 5710 5705 5700 5697 5708 5729 5741 5745 5716 5716 5732 5737 5738 5738 5734 5733 5741 5748 5750 5751 5751 5749 5747 5743 5738 5735 5732 5726 5718 5712 5708 5706 5702 5697 5691 5685 5679 5674 5668 5663 5657 5652 5646
5705 5699 5695 5692 5689 5700 5730 5731 5722 5718 5725 5729 5733 5734 5732 5731 5734 5738 5741 5740 5741 5740 5740 5738 5734 5731 5729 5725 5719 5712 5707 5706 5702 5696 5690 5684 5679 5674 5670 5663 5657 5652 5647 5641
5706 5706 5699 5698 5699 5716 5725 5725 5726 5724 5721 5724 5727 5728 5728 5725 5726 5728 5730 5729 5729 5730 5729 5728 5726 5722 5718 5716 5712 5705 5702 5699 5693 5687 5682 5677 5672 5667 5663 5657 5651 5646 5641 5635
5709 5711 5702 5698 5703 5712 5718 5720 5720 5720 5718 5720 5722 5721 5720 5717 5718 5720 5720 5718 5717 5717 5717 5716 5713 5710 5707 5704 5702 5698 5694 5689 5684 5678 5673 5668 5663 5659 5655 5650 5646 5640 5635 5630
5708 5704 5696 5693 5699 5704 5710 5714 5716 5716 5716 5715 5715 5714 5713 5711 5709 5709 5708 5707 5706 5706 5706 5704 5700 5697 5694 5691 5688 5685 5682 5678 5672 5667 5663 5659 5655 5651 5646 5643 5639 5635 5633 5628
5706 5703 5696 5692 5700 5697 5700 5708 5712 5708 5707 5707 5706 5704 5705 5704 5700 5699 5695 5695 5694 5693 5692 5689 5687 5684 5681 5678 5675 5672 5669 5665 5660 5655 5651 5647 5644 5640 5637 5634 5633 5632 5628 5626